Cathma — PJTL — position and weather

sailwx.info

Track history (hours):
 
Tides and Currents Weather Stations Pressure Air Temp Water Temp Dewpoint Dewpoint Depression Visibility Wind Speed Wind Dir Waves Ship Positions

Cathma

Last reported at 2014-Oct-24 16:30 UTC. Time now 2014-Oct-25 12:03 UTC.
Position N 56°14' E 006°48'.

Length 111 m; draft 6.4 m.

Type: Ship. MMSI: 306832000.

Date/timePositionNaut miles runAvg speedWind from/ knotsBaromVisibWave heightAir tempDewpointWater temp
2014-Oct-24 16:30N 56°14' E 006°48'9 9.2
2014-Oct-24 15:32N 56°21' E 006°57'134 8.8
2014-Oct-24 00:18N 57°45' E 010°09'810.1
2014-Oct-23 23:33N 57°46' E 010°23'10 9.6
2014-Oct-23 22:33N 57°49' E 010°40'1010.5
2014-Oct-23 21:33N 57°43' E 010°56'1010.3
2014-Oct-23 20:33N 57°35' E 011°09'1110.6
2014-Oct-23 19:33N 57°25' E 011°07'3 3.0
2014-Oct-23 18:33N 57°22' E 011°07'0 0.0
2014-Oct-23 17:33N 57°22' E 011°07'0 0.2
2014-Oct-23 16:33N 57°22' E 011°07'10 9.5
2014-Oct-23 15:33N 57°19' E 011°24'1111.4
2014-Oct-23 14:33N 57°11' E 011°37'1111.3
2014-Oct-23 13:33N 56°60' E 011°44'1111.2
2014-Oct-23 12:32N 56°49' E 011°51'1111.7
2014-Oct-23 11:33N 56°38' E 011°57'1111.3
2014-Oct-23 10:33N 56°27' E 012°02'1110.9
2014-Oct-23 09:33N 56°17' E 012°08'1111.2
2014-Oct-23 08:33N 56°10' E 012°25'1211.7
2014-Oct-23 07:33N 56°02' E 012°40'1110.8
2014-Oct-23 06:34N 55°52' E 012°44'1111.1
2014-Oct-23 05:33N 55°41' E 012°41'10 9.6
2014-Oct-23 04:33N 55°31' E 012°43'1110.7
2014-Oct-23 03:33N 55°21' E 012°41'1010.0
2014-Oct-23 02:33N 55°16' E 012°56'3311.0
2014-Oct-22 23:33N 55°14' E 013°55'1111.2
2014-Oct-22 22:33N 55°14' E 014°14'1110.7
2014-Oct-22 21:33N 55°21' E 014°27'1110.9
2014-Oct-22 20:33N 55°29' E 014°41'1110.7
2014-Oct-22 19:33N 55°34' E 014°57'1110.7
2014-Oct-22 18:33N 55°40' E 015°14'2311.0
2014-Oct-22 16:30N 55°51' E 015°49'1111.4
2014-Oct-22 15:30N 55°57' E 016°06'1111.3
2014-Oct-22 14:33N 56°02' E 016°22'7110.1
2014-Oct-22 07:30N 57°05' E 017°23'1010.4
2014-Oct-22 06:33N 57°15' E 017°30'1110.9
2014-Oct-22 05:33N 57°25' E 017°37'  
Track history (hours):
 
Tides and Currents Weather Stations Pressure Air Temp Water Temp Dewpoint Dewpoint Depression Visibility Wind Speed Wind Dir Waves Ship Positions

Cathma

Last reported at 2014-Oct-24 16:30 UTC. Time now 2014-Oct-25 12:03 UTC.
Position N 56°14' E 006°48'.

Length 111 m; draft 6.4 m.

Type: Ship. MMSI: 306832000.

Date/timePositionNaut miles runAvg speedWind from/ knotsBaromVisibWave heightAir tempDewpointWater temp
2014-Oct-24 16:30N 56°14' E 006°48'9 9.2
2014-Oct-24 15:32N 56°21' E 006°57'134 8.8
2014-Oct-24 00:18N 57°45' E 010°09'810.1
2014-Oct-23 23:33N 57°46' E 010°23'10 9.6
2014-Oct-23 22:33N 57°49' E 010°40'1010.5
2014-Oct-23 21:33N 57°43' E 010°56'1010.3
2014-Oct-23 20:33N 57°35' E 011°09'1110.6
2014-Oct-23 19:33N 57°25' E 011°07'3 3.0
2014-Oct-23 18:33N 57°22' E 011°07'0 0.0
2014-Oct-23 17:33N 57°22' E 011°07'0 0.2
2014-Oct-23 16:33N 57°22' E 011°07'10 9.5
2014-Oct-23 15:33N 57°19' E 011°24'1111.4
2014-Oct-23 14:33N 57°11' E 011°37'1111.3
2014-Oct-23 13:33N 56°60' E 011°44'1111.2
2014-Oct-23 12:32N 56°49' E 011°51'1111.7
2014-Oct-23 11:33N 56°38' E 011°57'1111.3
2014-Oct-23 10:33N 56°27' E 012°02'1110.9
2014-Oct-23 09:33N 56°17' E 012°08'1111.2
2014-Oct-23 08:33N 56°10' E 012°25'1211.7
2014-Oct-23 07:33N 56°02' E 012°40'1110.8
2014-Oct-23 06:34N 55°52' E 012°44'1111.1
2014-Oct-23 05:33N 55°41' E 012°41'10 9.6
2014-Oct-23 04:33N 55°31' E 012°43'1110.7
2014-Oct-23 03:33N 55°21' E 012°41'1010.0
2014-Oct-23 02:33N 55°16' E 012°56'3311.0
2014-Oct-22 23:33N 55°14' E 013°55'1111.2
2014-Oct-22 22:33N 55°14' E 014°14'1110.7
2014-Oct-22 21:33N 55°21' E 014°27'1110.9
2014-Oct-22 20:33N 55°29' E 014°41'1110.7
2014-Oct-22 19:33N 55°34' E 014°57'1110.7
2014-Oct-22 18:33N 55°40' E 015°14'2311.0
2014-Oct-22 16:30N 55°51' E 015°49'1111.4
2014-Oct-22 15:30N 55°57' E 016°06'1111.3
2014-Oct-22 14:33N 56°02' E 016°22'7110.1
2014-Oct-22 07:30N 57°05' E 017°23'1010.4
2014-Oct-22 06:33N 57°15' E 017°30'1110.9
2014-Oct-22 05:33N 57°25' E 017°37'  

Dump ship's entire track history